Portada
METAR-TAF:

METAR-TAF

Aeropuertos :

Iowa County Airport

Mineral Point, Wisconsin, Estados Unidos

latitud: 42-53-07N, longitud: 090-13-55W, altitud: 359 m

Observación

El informe se hizo hace 26 minutos, a las 20:35 UTC
Viento 6 kt del oeste-noroeste
Temperatura 24°C
Humedad 83%
Presión 1024 hPa
Visibilidad: 16.1 km
Nubes dispersas a una altura de 1200 ft
Nubes dispersas a una altura de 5500 ft

METAR: KMRJ 192035Z AUTO 30006KT 10SM SCT012 SCT055 24/21 A3024 RMK AO2 PWINO

Hora: 16:01 (21:01 UTC)


TAF: falta

Observaciones y pronósticos meteorológicos de más de 4000 aeropuertos (mensajes METAR y TAF).

Los puntos amarillos y rojos representan las estaciones disponibles.

Ponga el ratón en el punto deseado para ver el nombre de la estación.

Haga clic para ver las observaciones y los pronósticos meteorológicos.

Para cambiar el mapa : haga clic en los botones verdes con una cruz de color negro para hacer un zoom, en el botón verde con un guión para alejar o en las flechas verdes para mapas adyacentes.


METAR-TAF: